Location: Kailua
(21.4020°N, 157.7390°W)
Time: 20:30:12
(UTC-10:00)

Daily predictions for brighter satellites

Satellite Brightness Start Highest point End
(mag) Time Altitude Azimuth Time Altitude Azimuth Time Altitude Azimuth
Cosmos 1315 Rocket 3.0 19:05:56 10° S 19:09:53 80° W 19:13:54 10° N
GOES 2 Rocket 3.6 19:05:48 10° WNW 19:09:54 46° NNE 19:14:00 10° E
Cosmos 44 4.3 19:05:33 10° NW 19:10:08 47° WSW 19:14:26 10° S
Cosmos 2278 3.8 19:06:52 10° S 19:12:23 57° ESE 19:17:56 10° NNE
ATLAS V CENTAUR R/B 4.3 19:14:16 10° SSW 19:16:18 19° SE 19:20:41 10° E
Okean 1-7 Rocket 3.5 19:12:06 10° N 19:16:29 81° E 19:20:54 10° S
IUS-26 SRM-1 2.4 19:15:06 10° WNW 19:17:00 38° N 19:19:11 10° E
SJ-6B 2.6 19:15:07 10° SSE 19:18:51 84° E 19:22:35 10° N
Helios 1A 3.5 19:15:43 10° SE 19:19:33 37° ENE 19:23:24 10° N
METEOR-M 4.5 19:16:21 10° SE 19:21:23 45° ENE 19:26:27 10° N
Meteor 2-4 Rocket 4.3 19:18:14 10° NNE 19:23:45 41° E 19:29:17 10° SSE
Spot 1 4.5 19:21:05 10° SSE 19:26:04 75° ENE 19:31:13 10° N
Cosmos 2369 3.7 19:20:33 10° S 19:26:09 69° ESE 19:31:47 10° NNE
Cosmos 1821 Rocket 3.9 19:20:59 10° S 19:27:06 71° E 19:33:09 10° N
FREGAT/IRIS 2.7 19:25:50 10° S 19:28:58 90° WSW 19:32:06 10° N
Cosmos 1980 Rocket 3.8 19:27:50 10° ESE 19:30:02 12° E 19:32:15 10° ENE
Cosmos 1605 Rocket 4.5 19:24:19 10° SSE 19:30:09 39° E 19:35:55 10° NNE
Fermi 3.8 19:30:18 10° WSW 19:34:23 80° NNW 19:38:06 12° ENE
Hubble Space Telescope 1.7 19:32:43 10° WNW 19:36:38 39° NNE 19:39:51 14° ENE
CZ-4B DEB 3.8 19:35:26 14° SE 19:37:37 27° ENE 19:40:26 10° NNE
Cosmos 2208 Rocket 4.4 19:35:35 10° SSW 19:40:49 71° WNW 19:46:09 10° N
Cosmos 1455 Rocket 2.9 19:37:21 10° S 19:41:38 67° E 19:45:56 10° NNE
EO 1 Delta rocket 4.4 19:38:27 10° NNE 19:43:20 51° E 19:49:20 10° S
Cosmos 1025 Rocket 2.9 19:39:39 10° N 19:44:00 85° E 19:48:17 10° S
Spot 2 Rocket 3.5 19:40:39 10° SSE 19:45:45 89° E 19:50:52 10° NNW
Meteor 1-23 Rocket 4.2 19:41:05 10° N 19:46:43 64° E 19:52:23 10° SSE
Resurs 1-3 3.5 19:43:12 10° SSE 19:47:32 68° ENE 19:51:53 10° N
Cosmos 1892 Rocket 3.7 19:43:26 10° N 19:47:48 52° E 19:52:09 10° SSE
FengYun 1-2 T 4.3 19:43:41 10° SSE 19:49:15 63° ENE 19:54:48 10° N
FENGYUN 3A 3.9 19:50:28 13° SE 19:54:58 45° ENE 20:00:02 10° N
Cosmos 1346 Rocket 3.3 19:51:53 10° NNE 19:55:34 37° E 19:56:56 28° ESE
USA 186 3.1 19:57:25 24° ENE 19:57:25 24° ENE 19:59:27 10° NNE
Cosmos 1656 3.6 19:53:04 10° S 19:58:43 73° ESE 20:04:17 10° NNE
ALOS 2.3 19:57:43 17° SSE 20:01:13 55° ENE 20:05:46 10° N
Meteor 2-15 4.3 19:57:02 10° N 20:03:03 68° E 20:09:03 10° SSE
NOSS 3-4 (A) 4.4 19:57:39 10° N 20:04:23 40° ENE 20:07:50 26° ESE
NOSS 3-4 (C) 4.4 19:57:48 10° N 20:04:30 40° ENE 20:07:54 26° ESE
Resurs 01 Rocket 2.7 20:03:18 10° S 20:07:31 45° W 20:11:45 10° NNW
Meteor 2-15 Rocket 4.4 20:02:52 10° N 20:08:53 64° E 20:14:18 13° SSE
Cosmos 2227 Rocket 2.9 20:03:52 10° N 20:08:54 33° ENE 20:09:59 30° E
Cosmos 2123 Rocket 3.9 20:04:52 10° N 20:10:59 65° E 20:16:29 13° SSE
Iridium 4 Rocket 4.0 20:10:07 10° NNE 20:13:44 32° ENE 20:13:44 32° ENE
ATLAS 3B CENTAUR R/B 2.7 20:15:09 10° NW 20:15:36 13° NNW 20:15:36 13° NNW
Cosmos 2082 4.0 20:18:03 10° N 20:23:21 42° ENE 20:23:51 41° E
Cosmos 2297 Rocket 3.0 20:19:22 10° N 20:24:03 31° ENE 20:24:03 31° ENE
VEP-3 4.3 20:18:55 10° SW 20:25:33 45° SE 20:52:41 10° ENE
ERS-1 Rocket 4.1 20:27:59 27° NE 20:27:59 27° NE 20:31:06 10° NNE
Cosmos 1153 Rocket 4.4 20:22:19 10° S 20:28:34 89° ESE 20:34:46 10° N
GPS 2-15 Rocket1 3.0 20:27:42 10° W 20:32:22 71° S 20:32:31 70° SSE
Palapa 6 Rocket 3.9 20:28:01 10° W 20:33:21 43° SSW 20:33:54 41° S
Cosmos 1975 3.9 20:33:14 10° SSW 20:37:09 46° W 20:41:06 10° N
Cosmos 1802 Rocket 4.2 20:43:49 51° ENE 20:43:49 51° ENE 20:49:23 10° NNE
H-2A R/B 3.7 20:42:59 41° WSW 20:43:25 43° W 20:47:07 10° NNW
Delta 142 4.4 20:43:00 10° WNW 20:50:39 70° SSW 20:51:21 64° SSE
Cosmos 1697 Rocket 3.6 20:45:24 10° SW 20:50:49 48° WNW 20:56:15 10° N
Cosmos 1447 Rocket 4.4 20:44:36 10° N 20:50:57 80° E 20:51:50 67° SSE
CZ-3C R/B 2.7 20:20:20 10° W 21:01:22 81° SSW 21:02:58 62° ESE
Cosmos 2173 Rocket 4.1 21:09:50 61° SW 21:10:50 72° W 21:17:11 10° N
Cosmos 1980 Rocket 2.8 21:08:00 10° SSW 21:13:29 52° WNW 21:19:00 10° N
Hubble Space Telescope 3.3 21:13:53 10° WNW 21:15:14 20° WNW 21:15:14 20° WNW
Milstar 3 Cent rocket 4.0 21:08:56 10° WNW 21:29:11 67° N 21:31:53 54° ENE
Cosmos 2227 Rocket 4.3 21:48:33 10° NW 21:51:50 20° W 21:51:50 20° W
